Wind_Speed
46 47 47 48 50 52 54 55 56 55 55 54 53 53 51 50 49 49 49 49 49 49 49 49 49 49 50 51 52 53 55 57 59 60 60 61 61 60 60 59 59 59 60 61 64 68 69 68 65 61 58 56 55 55 55 56 55 51 47 46 48 48 45 41 38 36 35 34 35 35 37 37 37 36 35 34 35 35 34 34 33 32 30 29 27
50 52 51 52 52 53 55 57 57 57 56 55 55 55 54 53 52 51 51 51 51 50 50 50 50 50 50 51 53 55 58 60 61 61 61 62 61 61 61 61 61 61 61 62 66 68 67 64 61 58 56 55 55 55 55 54 51 46 45 46 46 44 40 37 36 35 34 34 36 37 37 37 36 34 33 32 32 33 33 33 32 30 29 27 26
54 55 55 55 56 57 58 58 59 59 59 59 58 58 58 58 57 55 54 54 53 52 51 52 52 52 52 53 56 59 61 61 61 61 62 62 61 60 61 61 61 61 62 64 66 66 63 60 58 56 55 54 54 54 54 51 45 43 44 44 43 40 37 35 34 33 34 35 36 36 36 34 33 32 31 31 31 31 31 31 31 30 29 27 26
55 57 58 58 58 59 60 61 61 62 63 63 62 61 61 60 60 60 59 58 56 55 54 54 55 55 56 57 59 61 61 61 61 62 62 62 60 60 60 61 61 62 63 65 65 62 59 57 56 55 55 54 54 53 50 45 41 42 42 41 38 36 34 33 33 33 34 35 36 35 34 33 31 30 29 29 30 30 30 30 30 30 30 29 28
57 59 59 59 60 61 62 63 64 64 64 64 64 63 63 62 62 62 63 62 61 59 58 58 58 59 60 60 62 61 61 61 62 63 63 62 60 60 60 60 61 62 63 63 61 58 57 56 56 55 54 53 53 50 44 39 39 40 39 37 35 33 32 32 33 34 35 35 35 34 32 32 30 29 28 28 29 29 30 30 30 30 29 29 30
59 61 61 61 62 63 64 66 66 66 65 64 63 63 63 63 63 64 64 63 62 61 61 60 61 62 62 63 63 62 62 63 63 64 64 62 61 60 60 60 61 62 62 60 57 56 56 56 56 55 53 52 50 44 38 37 37 37 35 33 32 31 31 33 34 34 35 35 34 33 32 31 30 28 27 28 28 29 29 30 29 29 29 29 30
59 60 60 61 62 63 64 65 65 65 64 63 61 61 61 62 62 62 62 62 62 61 60 61 61 61 62 63 63 63 64 65 66 65 64 63 62 61 60 60 61 60 59 56 55 56 56 56 55 53 51 49 43 37 35 35 34 33 32 31 30 31 32 33 34 34 35 35 33 32 31 30 29 28 27 28 28 29 29 29 28 28 28 28 28
57 58 57 57 58 58 59 59 59 60 60 60 59 58 57 57 58 59 59 60 61 60 60 59 60 61 62 63 64 66 66 66 66 65 64 63 62 61 60 60 59 58 56 55 55 55 55 55 53 51 47 42 36 32 33 33 32 31 30 30 30 30 32 33 33 35 35 34 32 31 30 30 29 28 28 28 28 28 28 27 26 26 25 25 25
58 58 58 57 56 56 56 57 57 57 57 57 56 56 56 56 56 57 59 60 61 60 60 60 61 63 64 65 67 67 66 66 65 64 63 61 60 60 59 58 56 55 54 54 54 54 53 52 50 46 40 34 30 30 30 30 30 30 29 29 29 31 32 33 34 35 35 33 31 30 30 30 29 28 28 28 28 28 27 25 23 22 22 23 24
62 61 60 59 59 58 59 59 58 57 57 57 56 56 57 57 57 59 60 60 60 61 62 64 65 66 67 68 68 67 65 64 63 61 60 59 58 58 57 56 54 53 53 53 52 51 51 48 44 38 32 28 28 28 28 28 29 28 27 28 29 31 33 34 35 35 35 33 31 29 29 29 29 28 28 28 28 27 25 23 22 22 23 24 26
64 63 62 61 62 62 62 62 61 59 58 58 59 59 59 59 60 61 61 61 62 63 64 66 67 67 68 68 67 65 63 61 60 58 58 57 57 57 56 54 53 52 52 50 49 48 46 42 35 30 26 25 26 25 26 27 26 25 25 27 29 31 33 34 35 35 34 32 30 29 28 29 29 29 28 28 27 27 25 23 23 24 25 27 29
62 62 63 63 63 64 64 63 61 60 60 61 61 61 61 61 61 62 62 62 63 64 65 65 65 65 64 63 62 61 60 59 57 57 57 57 56 56 54 52 51 50 49 47 45 43 39 32 27 24 23 23 23 24 25 25 23 23 24 26 29 32 33 34 35 36 34 32 30 29 29 29 30 30 29 28 27 27 26 26 26 27 28 30 32
55 57 59 61 61 63 63 63 61 61 61 62 62 61 61 60 59 59 59 59 60 61 61 60 58 58 56 56 56 57 57 56 57 57 56 55 54 52 50 49 47 46 44 42 39 35 29 24 22 21 21 20 21 23 23 22 21 22 24 26 30 32 34 36 36 36 34 32 30 29 29 29 30 31 30 28 27 27 27 28 28 29 30 31 33
46 46 47 49 50 51 51 51 51 52 53 54 54 53 52 53 54 54 54 54 54 54 54 53 53 53 54 55 56 55 55 55 55 54 52 50 48 47 45 44 42 41 38 34 30 26 22 20 19 19 18 19 21 22 21 20 21 22 24 27 30 33 36 37 37 36 34 32 30 29 28 29 30 31 31 28 27 27 27 28 29 30 31 32 33
44 42 40 40 40 41 42 42 43 45 47 48 48 48 49 50 52 53 51 49 49 51 52 53 54 55 56 55 53 52 51 52 51 49 46 44 42 41 40 39 37 34 29 25 22 20 18 18 17 16 17 20 21 20 19 20 21 24 26 28 31 35 38 39 38 37 35 33 31 29 29 30 31 32 31 28 26 26 27 28 29 30 31 32 33
47 45 43 42 43 45 46 49 51 52 51 52 52 51 49 48 48 48 45 45 47 48 48 48 47 47 46 45 45 45 46 46 45 42 39 38 37 36 35 33 30 25 20 19 18 17 17 16 14 15 19 21 20 18 18 20 23 25 27 30 33 37 40 40 39 38 35 33 31 30 30 31 32 32 30 27 26 25 26 27 28 30 31 32 32
52 52 52 51 51 51 52 54 55 54 51 51 49 45 42 41 39 37 37 39 40 37 37 38 37 38 36 33 33 34 34 34 33 31 30 31 32 31 29 25 22 19 16 16 16 17 16 14 14 17 20 20 18 16 18 21 24 26 28 31 33 38 41 40 40 38 36 33 31 30 31 32 32 31 28 26 25 25 25 27 28 29 30 31 31
56 56 57 58 56 54 53 52 51 48 45 45 43 40 39 37 32 31 32 33 30 29 32 34 35 35 30 26 25 25 24 23 22 22 24 26 26 25 22 19 18 17 16 16 16 17 14 12 15 18 19 18 16 16 19 22 24 26 29 31 34 39 42 42 40 39 37 34 31 31 31 31 31 30 27 26 25 25 26 27 27 28 29 30 29
58 58 59 59 57 56 55 53 50 47 47 49 47 43 41 34 30 32 30 29 28 29 33 36 37 34 26 24 25 23 21 18 18 19 20 21 20 19 18 17 16 17 18 17 17 16 13 13 16 17 18 17 15 17 20 23 25 27 29 31 35 40 44 43 41 39 37 34 32 31 31 31 30 29 27 26 26 26 26 26 26 27 27 27 25
57 58 58 57 55 55 54 53 52 51 53 52 49 45 40 34 33 34 32 30 30 32 37 40 38 33 27 26 25 23 19 18 18 18 18 18 16 15 16 16 16 18 18 19 19 15 14 15 16 16 17 16 17 20 22 24 26 27 29 32 35 41 46 44 40 38 36 34 32 32 31 29 28 26 25 25 25 25 24 24 24 25 25 25 24
53 55 55 54 53 53 53 53 52 52 53 51 49 45 40 38 36 37 36 34 33 36 40 39 36 34 30 26 25 25 21 20 21 18 17 16 14 14 16 16 17 18 18 20 18 15 16 17 16 17 17 18 20 22 24 26 27 28 30 33 37 43 46 41 38 38 36 35 33 32 30 27 26 24 24 23 23 23 23 22 23 24 25 24 23
51 52 51 52 52 53 54 54 53 52 52 51 51 48 45 43 42 40 39 36 37 41 43 39 35 35 33 29 29 29 25 23 23 19 18 16 14 15 17 17 17 17 18 20 17 17 18 18 17 18 19 21 23 24 27 28 29 29 30 34 39 44 47 41 39 40 38 35 33 31 29 27 26 23 23 23 22 21 21 21 23 25 25 24 22
51 51 51 51 52 52 52 53 53 52 53 53 52 50 48 46 46 46 44 42 44 47 47 43 39 38 38 35 32 32 28 25 24 21 19 17 15 17 18 17 17 17 18 18 18 19 20 18 18 20 21 23 25 27 29 30 29 28 31 36 42 47 48 43 41 41 39 36 32 29 28 27 25 23 23 22 20 19 19 21 23 25 24 22 20
52 52 52 52 51 51 51 51 52 52 53 54 53 50 47 45 45 47 48 48 49 51 51 48 46 44 41 38 35 33 30 26 25 23 21 18 18 19 19 19 18 17 18 19 20 22 21 20 20 21 23 25 28 30 31 31 29 28 32 39 46 48 46 41 39 39 38 35 30 27 27 26 24 23 22 20 19 18 19 22 24 24 22 20 20
53 54 54 53 51 51 51 51 52 52 51 52 51 49 47 45 45 47 49 50 51 53 53 50 48 45 41 39 35 31 29 26 27 26 23 21 20 21 21 20 20 19 20 21 22 23 22 21 21 23 25 28 31 32 31 29 28 29 35 42 47 47 45 41 38 37 37 34 28 26 26 24 22 21 20 19 19 19 21 22 23 23 21 20 19
55 55 55 55 54 54 54 54 54 53 52 51 51 50 49 48 47 48 49 51 51 53 53 51 49 45 41 40 34 29 28 28 29 27 24 23 22 22 23 22 22 21 21 22 23 24 23 23 23 24 28 31 32 32 31 28 27 31 39 46 46 45 46 43 39 37 36 33 29 27 24 21 20 21 21 20 20 21 23 23 23 22 20 19 19
57 58 58 58 58 57 56 56 56 55 55 53 54 54 53 52 50 50 51 52 53 53 54 52 50 44 40 39 34 30 30 30 30 28 25 24 24 25 25 24 24 23 23 22 23 25 25 24 24 26 30 32 32 31 30 28 29 34 42 46 45 47 48 43 39 37 34 32 29 28 24 21 20 22 23 23 21 22 24 23 21 21 20 20 19
54 55 55 57 59 59 59 58 57 56 56 55 57 57 55 54 53 54 55 55 56 56 56 54 51 44 38 37 33 31 32 30 30 28 26 26 26 26 26 25 25 24 23 22 24 26 25 23 24 28 31 32 32 32 30 29 32 37 44 45 44 49 48 41 38 36 33 31 29 28 25 21 20 22 24 24 23 24 24 22 20 20 20 20 19
50 50 52 55 56 57 57 56 55 55 55 54 55 55 55 55 55 57 58 58 57 57 57 54 50 43 37 35 32 32 33 31 30 29 28 28 27 26 27 26 26 25 23 23 25 25 23 23 26 29 31 31 32 33 32 33 35 41 46 45 45 49 47 41 37 35 33 31 29 27 24 21 21 23 25 24 24 24 23 21 21 20 19 20 19
53 51 51 53 55 55 55 54 54 54 52 51 52 54 55 55 56 57 57 57 56 56 55 50 45 40 36 34 34 34 33 32 31 31 30 29 27 26 25 25 25 25 24 23 24 23 22 23 27 30 31 31 34 35 36 36 39 44 47 47 47 49 47 42 38 34 32 31 28 25 23 22 22 23 25 25 24 23 22 23 22 20 19 20 20
56 53 48 49 53 54 54 54 53 51 50 51 53 54 54 54 54 54 52 51 52 53 51 46 41 35 33 34 36 36 34 34 33 32 32 30 28 26 25 24 25 25 25 24 24 22 22 25 28 29 29 32 36 38 39 39 43 46 47 49 49 49 47 44 39 34 32 31 27 24 22 22 23 24 25 24 23 22 22 24 22 20 20 21 21
53 51 48 49 53 54 55 54 50 48 49 52 53 52 51 51 50 49 47 45 46 49 50 47 41 33 30 32 34 35 35 35 34 31 31 29 27 26 25 25 25 27 27 25 24 24 25 28 30 29 30 34 37 39 40 42 46 46 47 49 50 49 47 44 40 34 32 30 27 24 22 23 25 25 25 23 21 21 22 23 21 20 21 22 20
49 48 44 47 54 56 55 51 47 47 49 49 48 46 44 43 41 38 37 38 42 46 48 48 40 31 27 29 33 34 35 36 33 31 29 27 26 24 23 25 27 27 27 25 25 27 28 30 31 32 32 34 37 39 41 45 47 45 46 49 50 50 48 44 40 35 32 29 26 24 23 25 26 25 24 23 22 20 20 20 20 21 22 21 20
55 50 46 50 55 55 53 48 47 48 47 43 41 41 40 39 38 35 31 31 35 40 44 45 38 29 27 30 34 34 34 35 32 30 29 25 22 22 22 25 26 24 23 23 25 27 28 30 32 33 32 34 37 40 42 46 46 45 46 49 51 52 49 45 39 35 31 28 26 25 26 27 27 25 24 24 22 20 19 20 21 22 23 23 23
60 57 58 59 56 54 52 49 48 46 42 38 37 38 39 40 39 37 34 30 31 33 37 40 33 28 29 32 35 35 33 33 32 30 30 25 20 21 23 23 24 23 20 19 21 25 29 32 35 35 35 35 39 42 44 46 46 46 48 49 53 53 49 43 37 33 31 28 27 27 27 27 26 24 24 24 23 21 20 21 21 22 23 26 25
60 60 61 60 57 55 54 52 50 42 35 36 38 36 37 40 38 38 38 36 34 32 32 34 30 28 32 34 35 36 34 34 32 30 31 26 21 23 25 24 24 23 19 19 22 28 33 37 39 39 39 39 41 43 44 46 48 50 50 51 54 52 45 38 33 30 30 28 27 27 27 27 26 24 24 23 23 23 22 21 21 21 23 25 25
58 58 58 57 57 56 55 53 48 39 33 37 41 39 39 41 39 39 41 41 38 34 31 31 29 29 33 34 33 33 34 34 32 31 30 28 25 24 25 25 25 23 23 26 29 34 37 42 45 42 41 42 43 44 45 48 51 52 52 53 54 48 40 34 29 26 28 29 28 28 28 27 26 23 23 23 23 23 22 22 22 21 22 23 23
56 55 55 55 56 55 53 48 43 39 35 36 38 36 35 36 37 37 36 35 35 33 32 29 29 31 33 32 31 31 32 32 31 30 30 30 27 26 26 26 26 26 28 30 32 36 41 46 47 43 41 42 45 45 46 49 51 53 53 54 52 45 37 30 26 26 29 31 30 30 29 28 26 23 22 23 23 23 22 22 22 22 22 23 23
52 52 50 49 49 47 45 40 37 37 33 32 35 35 32 31 33 35 31 29 30 32 33 30 29 31 33 33 33 33 33 32 30 28 29 30 27 26 26 27 28 30 31 32 34 39 43 45 44 42 42 44 45 45 47 50 51 53 55 54 49 40 32 27 26 28 32 32 31 30 29 28 25 23 22 22 22 22 23 23 22 23 24 24 23
49 47 45 43 42 40 38 34 30 30 29 32 35 36 34 31 31 34 34 32 30 31 32 32 31 31 32 34 35 35 37 37 32 27 28 29 29 28 28 28 29 30 31 34 37 40 42 41 39 41 43 44 44 44 48 52 53 55 56 53 46 37 31 28 29 32 33 32 31 30 30 29 27 25 23 22 23 24 25 24 24 26 27 24 23
47 44 40 36 34 33 32 31 27 28 32 35 38 38 37 34 33 35 36 36 33 30 30 31 32 31 33 35 36 37 39 40 36 29 27 29 31 32 32 32 32 33 34 35 36 39 40 38 37 41 44 46 46 47 50 54 55 56 54 50 44 37 32 30 31 33 34 33 32 31 31 29 28 27 25 23 24 26 26 25 25 27 26 23 24
47 43 39 36 34 33 33 33 32 34 38 38 39 40 39 37 36 36 36 38 36 32 31 31 31 31 34 36 38 38 39 39 37 32 29 29 31 33 35 36 37 37 37 36 37 38 37 37 39 43 47 48 49 50 51 54 55 55 52 48 43 37 32 31 32 34 35 35 34 33 32 29 28 28 26 26 27 29 30 30 29 28 27 27 28
47 44 44 42 41 43 42 40 37 38 42 43 43 43 42 42 41 38 37 39 38 35 34 33 32 32 35 38 38 38 38 37 37 34 31 31 33 35 37 38 38 37 36 36 37 35 34 38 42 46 48 48 48 50 52 53 53 51 49 45 40 36 32 31 33 34 35 36 35 34 32 31 31 29 27 26 29 31 34 35 34 31 30 30 30
45 43 42 40 42 44 43 42 39 38 42 47 49 50 49 47 46 43 38 39 39 37 35 35 34 34 36 38 38 37 35 35 35 33 31 33 36 37 37 38 37 36 36 37 36 34 37 43 46 47 48 47 48 51 51 50 48 46 44 41 38 35 32 32 33 34 35 36 35 33 32 33 34 32 30 30 31 32 33 35 34 32 31 32 34
42 38 37 38 43 43 39 39 39 38 41 46 49 52 54 50 49 49 42 39 40 38 36 36 36 35 36 39 40 39 36 35 36 34 33 35 37 37 38 40 40 39 39 38 38 40 43 45 46 47 48 48 49 49 47 46 45 43 40 38 37 35 33 33 34 34 35 35 33 32 32 34 36 36 36 34 34 33 33 33 32 32 32 34 37
34 33 39 42 43 42 38 37 38 38 41 44 44 48 53 52 52 51 45 40 40 38 37 37 37 37 37 38 40 42 40 38 38 36 35 36 37 38 39 40 42 44 43 41 42 43 43 43 44 46 48 48 47 46 46 46 44 41 39 38 36 34 33 33 33 33 34 34 32 32 33 35 37 38 37 35 34 34 33 33 34 35 36 38 39
27 33 45 46 41 40 38 36 36 38 40 42 42 45 50 53 53 50 44 40 38 37 36 36 37 38 40 40 39 40 41 42 41 39 38 38 39 39 40 43 45 47 45 43 41 40 40 42 44 45 46 46 45 45 44 43 41 40 40 38 36 34 33 32 32 32 33 33 33 33 33 34 36 35 34 34 34 33 34 35 38 39 39 39 39
27 37 49 49 41 38 39 37 37 38 39 42 43 43 47 52 54 51 44 40 39 38 38 38 39 40 43 45 43 41 40 42 44 44 43 41 40 41 44 46 46 46 45 42 39 39 40 43 44 45 45 44 43 42 41 40 40 40 40 38 35 33 31 31 31 31 32 33 34 34 33 32 33 33 33 32 33 34 37 39 40 40 39 38 36
29 39 49 51 44 39 40 39 38 37 37 41 44 45 45 49 54 55 49 43 41 42 42 42 43 42 42 43 44 43 41 41 45 47 46 43 43 44 46 46 46 47 45 41 39 40 42 43 44 44 44 43 42 40 39 39 39 40 40 37 34 32 31 30 31 32 33 34 34 34 33 32 31 31 32 34 35 37 39 39 39 37 36 35 34
34 41 49 53 47 43 42 40 39 37 35 38 42 44 45 46 52 56 55 49 45 45 46 46 46 43 42 42 43 44 43 43 45 47 48 48 48 49 49 49 50 48 44 41 42 43 43 44 44 44 43 42 41 39 38 39 39 39 38 36 34 32 31 31 32 33 34 35 35 35 35 34 31 30 31 33 35 37 37 36 35 34 34 33 33
37 41 47 51 48 43 43 42 41 38 34 35 38 40 43 44 48 54 56 53 50 49 48 47 47 45 45 46 46 48 50 50 49 49 50 50 49 49 49 50 50 48 46 44 44 43 43 44 44 43 43 42 40 39 38 38 38 38 37 35 34 33 33 33 34 34 35 36 37 37 36 35 33 32 32 33 35 36 35 34 33 33 33 33 33
Wind_Direction
273 273 273 273 273 274 276 277 279 281 283 284 286 287 288 288 289 289 288 288 289 289 289 289 289 290 290 291 292 294 296 298 300 301 303 304 303 303 302 302 302 303 304 305 307 309 309 310 310 310 311 311 311 312 312 312 312 312 311 312 311 311 311 310 310 310 310 309 309 308 308 307 307 307 308 309 308 305 303 301 299 296 293 291 288
272 273 274 274 275 275 276 277 278 280 282 283 284 285 286 286 288 289 289 288 288 288 288 287 288 289 290 291 292 295 297 298 299 300 301 302 302 301 301 302 302 303 304 305 307 309 309 309 310 310 311 311 311 312 312 312 311 311 311 312 312 311 311 311 312 312 312 311 310 310 309 309 310 310 310 310 309 306 303 301 298 295 291 288 284
271 272 272 273 274 274 275 276 277 278 280 281 282 283 285 286 288 289 290 289 287 287 287 287 287 288 289 291 294 296 297 298 298 299 300 301 301 300 301 301 302 303 304 305 307 308 309 309 309 310 310 311 311 311 311 311 311 311 312 312 312 311 311 313 314 314 314 313 313 313 313 313 314 313 313 312 310 307 303 299 296 293 289 285 281
272 273 274 274 274 274 275 276 277 278 280 281 282 283 285 286 288 289 290 290 289 288 287 287 287 288 289 291 295 297 296 297 298 299 300 301 300 300 301 301 302 303 304 305 307 307 308 308 309 309 309 310 311 311 311 310 311 312 312 312 311 311 312 314 316 317 317 317 317 317 316 317 317 316 315 313 310 306 301 297 294 291 288 284 280
273 274 275 275 275 275 276 277 278 280 281 281 282 283 285 286 287 288 289 290 290 290 290 289 288 289 289 291 295 296 296 297 298 299 300 300 299 300 301 302 303 303 304 306 306 306 307 307 308 308 309 310 310 310 310 310 311 312 311 311 311 311 313 316 318 319 321 320 320 319 319 319 318 317 315 313 309 305 301 297 293 290 287 283 281
273 274 275 275 275 275 276 278 279 280 281 282 283 284 285 285 286 287 287 288 290 290 291 291 290 289 289 291 293 295 296 297 298 299 299 299 299 300 301 302 303 304 304 305 305 305 306 306 307 307 308 310 310 309 309 310 312 311 310 310 310 311 314 318 319 321 322 322 322 321 320 319 319 318 316 314 310 306 302 298 294 290 288 286 285
273 275 276 276 276 276 277 278 279 279 280 282 283 285 285 285 285 286 287 288 289 290 291 291 291 290 290 291 293 295 296 297 297 298 298 298 299 300 302 302 303 303 304 304 304 305 305 305 306 307 308 309 309 309 309 311 310 309 310 310 309 311 316 319 321 322 323 323 322 320 320 320 319 318 317 316 313 309 305 301 297 295 294 294 294
272 274 275 276 277 277 278 279 279 280 280 282 283 285 286 286 287 288 288 289 290 290 291 291 291 291 291 291 294 295 296 296 297 297 297 298 299 300 301 302 302 302 303 303 303 304 304 305 306 308 308 308 307 309 310 309 308 309 310 310 310 313 318 321 322 323 323 322 322 320 320 320 319 319 318 317 315 312 308 304 301 301 301 301 300
272 272 273 275 276 277 279 280 281 281 281 282 283 284 286 288 288 289 290 290 290 290 291 292 292 292 291 292 294 295 295 296 296 297 297 298 299 300 301 301 301 301 302 302 303 304 304 305 307 308 307 306 307 309 309 306 307 310 312 311 312 315 320 322 322 323 322 322 321 320 319 319 319 319 318 318 317 314 309 306 304 303 302 300 301
271 271 271 272 274 275 278 280 281 282 282 283 283 284 286 288 289 290 290 290 290 291 292 292 292 292 291 292 293 294 295 295 296 297 297 298 298 299 300 300 300 301 301 302 303 303 304 305 307 306 305 306 308 308 306 306 310 312 312 312 313 318 322 323 323 323 322 321 320 318 318 319 319 318 318 318 317 314 309 305 302 300 298 299 303
271 271 270 271 272 274 277 278 280 280 281 283 283 284 286 288 289 290 289 289 289 291 292 292 292 292 292 292 293 293 293 294 296 297 297 298 298 298 298 299 299 300 301 302 303 303 304 305 305 304 305 307 308 306 304 308 312 313 313 314 317 321 324 324 323 323 321 319 318 318 318 318 320 319 317 317 316 313 306 300 297 297 298 301 304
272 271 271 271 273 275 276 277 278 278 280 283 283 284 286 287 288 289 288 288 289 290 291 292 292 292 292 293 293 293 293 293 295 296 297 297 296 297 297 298 298 299 301 303 303 303 304 304 303 303 306 309 307 304 305 310 313 315 316 317 321 325 326 326 324 323 321 319 317 317 318 318 319 319 316 314 314 311 303 298 297 299 301 303 305
271 269 269 271 273 275 277 278 279 279 280 282 283 284 286 287 288 290 291 290 290 291 292 293 293 293 294 295 296 295 294 294 295 296 295 295 296 297 297 297 297 300 303 303 302 303 302 301 302 304 309 309 305 303 306 311 315 317 319 321 324 328 330 329 326 324 322 319 318 317 317 317 317 318 316 312 311 308 303 300 300 302 303 304 307
271 272 273 275 277 279 280 281 281 281 281 283 284 285 287 289 290 292 293 294 294 293 294 295 297 297 297 298 298 297 295 294 295 295 295 296 296 297 296 296 299 302 302 301 301 301 299 299 302 307 311 308 303 304 307 312 315 318 321 325 328 332 334 331 328 326 322 319 318 318 317 316 316 316 315 312 310 308 304 302 303 304 305 306 308
271 276 278 279 280 279 279 280 281 282 284 285 286 288 290 292 295 295 295 295 296 297 297 299 300 299 298 299 298 297 296 294 294 295 296 297 297 296 296 299 301 301 299 299 300 299 297 299 304 310 311 306 304 305 307 312 316 320 324 328 333 336 336 333 329 326 323 321 319 318 317 316 316 316 315 312 310 308 306 305 305 305 306 308 311
267 272 273 275 277 276 277 278 279 282 285 286 287 290 293 297 299 296 294 295 298 301 303 304 305 305 304 303 300 298 296 295 295 297 298 297 296 296 298 301 299 297 296 296 298 297 297 300 305 311 309 305 304 305 306 313 319 322 326 330 334 338 338 334 331 328 325 322 319 318 317 316 316 316 315 313 311 310 309 308 307 308 309 311 314
263 266 268 270 274 277 278 279 281 284 286 287 290 292 296 303 304 299 296 298 302 309 314 315 315 315 313 310 305 302 300 299 299 300 299 297 296 299 300 298 294 292 290 292 296 297 296 298 306 310 307 304 303 303 307 315 320 323 326 329 333 338 339 335 331 328 325 322 318 316 315 315 315 315 315 313 312 312 311 310 310 310 312 314 318
263 264 265 267 271 275 279 281 282 283 284 288 291 292 296 304 306 303 301 302 304 310 318 320 319 317 313 312 311 309 309 307 307 305 301 298 297 299 296 291 288 286 285 288 296 296 291 295 305 307 305 302 300 302 310 317 321 323 325 327 332 337 339 335 331 328 325 321 317 314 314 314 315 315 315 314 313 313 313 312 312 313 316 318 321
264 265 266 267 270 273 275 277 278 279 282 286 288 289 294 297 298 300 299 297 295 300 310 313 315 314 311 312 312 312 311 310 313 309 303 299 298 295 287 285 283 281 282 286 294 290 283 293 303 305 304 300 299 305 313 317 320 322 323 326 331 337 338 335 330 327 324 320 316 314 314 314 314 315 316 316 315 315 314 314 315 317 321 324 326
264 266 267 269 271 272 272 273 275 277 280 283 285 287 289 287 287 292 292 291 289 292 299 305 310 309 308 310 310 311 308 310 315 310 306 302 297 288 279 279 279 281 283 287 290 278 277 293 301 305 303 299 302 307 313 316 318 320 322 326 331 336 338 334 329 327 323 318 316 316 316 315 316 317 319 319 318 317 317 317 319 322 326 329 330
265 266 267 269 270 270 271 274 276 277 279 282 283 285 284 281 280 283 286 286 286 287 291 298 305 304 305 307 306 308 305 309 313 308 306 301 291 278 273 275 276 281 286 291 285 269 279 295 301 303 302 302 305 308 312 314 315 317 321 327 331 335 339 335 328 327 323 318 316 317 316 315 317 319 322 322 320 319 319 319 322 327 329 329 330
267 267 268 269 269 270 272 275 277 277 279 280 281 282 282 280 277 275 277 280 281 284 287 291 296 299 302 303 303 303 301 304 307 303 301 295 280 268 268 271 274 279 287 292 279 269 285 294 298 300 302 306 308 310 312 314 313 315 321 327 330 334 338 333 325 325 322 318 317 317 315 316 320 322 323 322 320 319 319 322 326 329 329 328 329
267 268 269 270 271 272 274 275 277 278 279 281 281 281 281 280 276 271 270 275 280 282 285 286 289 293 295 297 297 297 295 297 299 296 294 287 268 260 264 267 269 275 284 288 280 278 286 289 293 297 305 310 311 312 313 314 312 315 321 327 330 333 336 330 322 321 320 318 319 318 317 319 322 323 323 321 320 320 321 326 329 328 328 328 329
269 271 272 274 274 274 275 276 278 279 280 282 283 283 283 280 276 273 272 277 282 283 284 283 284 289 291 291 290 291 289 288 292 290 286 279 262 255 259 263 263 270 279 285 288 287 283 285 290 297 308 314 315 315 315 313 311 315 322 329 332 333 334 329 320 318 317 317 318 317 317 319 320 321 322 321 320 322 326 330 330 329 328 329 329
272 274 275 276 277 276 276 278 280 280 282 283 283 283 283 279 276 277 277 280 282 282 284 283 283 285 287 287 285 284 282 281 286 285 281 273 258 252 256 259 259 266 277 284 293 292 283 283 290 299 310 317 319 318 315 311 309 315 323 331 333 332 332 328 320 318 315 314 315 314 315 316 318 320 320 321 322 324 329 331 330 329 328 328 330
275 275 276 277 277 277 277 279 280 281 282 282 282 282 282 280 277 278 279 281 282 282 283 283 283 282 283 284 281 277 275 276 281 279 276 269 256 251 254 257 258 265 273 281 293 295 286 284 291 303 313 320 322 320 313 308 309 317 326 332 333 332 331 326 321 319 315 312 310 310 310 312 316 318 317 319 323 325 327 328 327 327 327 328 330
276 275 276 277 277 277 278 278 279 279 280 280 280 281 281 280 279 280 282 283 283 282 282 281 281 280 278 280 277 274 273 272 274 272 271 267 255 251 254 254 257 263 269 278 292 296 288 285 294 307 316 321 323 321 312 305 309 319 328 332 332 333 331 325 321 318 314 310 306 305 306 307 311 314 314 317 321 322 324 324 323 324 326 327 329
277 277 277 276 276 276 277 277 278 278 278 279 280 280 280 281 281 282 284 285 283 282 280 278 278 276 273 274 273 273 272 268 266 265 267 265 255 252 251 252 258 264 268 276 291 294 286 285 298 312 319 322 322 319 310 304 310 321 328 331 331 333 332 326 320 317 313 309 303 302 303 303 305 309 312 314 316 318 322 321 318 321 325 326 328
272 276 279 279 277 276 277 277 279 279 279 281 282 282 283 283 283 284 284 283 281 279 277 275 274 271 267 268 272 273 269 263 259 259 264 262 254 250 249 252 260 265 267 276 289 290 282 288 302 313 321 322 321 316 306 306 313 321 327 330 330 332 331 326 320 315 310 306 303 300 301 302 302 305 309 311 312 315 318 317 315 317 321 325 325
268 273 278 279 278 277 277 278 280 282 283 283 284 285 287 288 287 285 282 280 277 274 273 272 271 268 263 263 268 270 264 259 255 257 262 259 253 250 248 253 260 264 266 274 285 282 279 292 304 312 318 320 320 313 306 309 315 320 327 331 331 332 330 326 320 314 307 303 301 298 298 299 300 303 307 308 308 309 312 314 312 311 316 321 320
267 269 272 276 278 278 278 279 281 282 283 285 286 288 291 291 287 283 280 277 273 270 268 268 269 267 263 261 263 263 258 255 254 255 259 256 253 252 251 254 258 259 260 267 275 272 278 295 307 313 315 316 315 308 306 313 317 322 328 331 333 332 329 325 320 313 306 300 297 295 295 297 300 304 308 308 306 306 308 310 309 306 310 315 315
264 268 271 272 272 276 278 279 279 281 283 286 288 290 291 288 284 281 280 276 271 268 268 269 268 263 262 261 258 257 254 253 254 255 257 257 256 254 253 253 253 254 255 263 269 272 285 298 308 312 313 316 310 304 308 315 320 324 329 331 332 330 327 324 320 313 305 298 294 293 295 297 299 302 306 307 306 307 308 308 306 303 306 311 312
259 265 270 266 266 273 277 276 277 282 286 288 289 288 284 281 282 285 284 277 269 266 266 266 263 257 257 256 253 252 251 251 252 255 257 258 258 255 254 254 256 256 256 261 267 276 290 300 307 311 315 316 306 303 310 314 318 323 326 329 329 327 326 322 318 312 305 297 293 292 293 295 296 299 304 305 305 307 308 309 308 304 303 308 311
258 259 257 261 267 272 273 274 278 284 287 287 284 277 271 270 276 283 285 278 271 266 263 262 257 249 250 252 251 247 245 247 250 254 256 256 254 252 253 258 263 263 263 269 275 284 295 303 310 315 317 312 302 301 307 312 317 319 321 325 326 324 323 320 315 309 303 297 295 295 294 294 296 300 304 303 300 302 305 308 310 307 304 308 311
257 256 256 261 267 269 269 274 282 285 286 282 273 265 266 270 273 276 275 273 274 270 266 261 251 245 249 252 250 245 243 245 247 250 254 253 245 241 245 254 265 268 269 275 283 294 303 310 314 315 314 308 301 302 307 313 317 318 319 322 324 322 319 318 313 305 300 296 296 297 296 297 299 301 302 301 297 296 299 302 306 306 305 308 308
259 259 260 262 265 266 269 275 280 283 281 272 263 259 262 268 272 274 270 267 271 275 272 262 248 246 252 251 249 246 244 245 246 248 249 246 238 236 243 254 264 266 262 264 280 296 304 309 312 312 312 307 301 303 309 315 317 318 319 320 322 321 318 316 310 301 296 293 292 293 294 297 300 301 301 300 297 295 294 295 299 301 304 309 307
262 262 262 264 266 267 269 274 276 275 270 263 262 262 263 264 267 273 274 269 269 273 273 261 247 247 250 248 248 247 246 247 248 247 244 242 238 240 249 258 261 257 253 258 277 293 300 305 309 310 311 306 301 302 310 315 317 318 318 319 321 320 316 311 304 294 290 289 288 288 292 296 298 299 302 302 299 296 292 290 292 296 302 309 309
263 264 265 268 269 270 270 271 271 269 270 268 263 258 259 260 260 266 272 272 268 265 263 254 244 246 246 244 246 247 246 247 248 247 243 240 240 245 254 258 257 256 258 262 274 287 297 305 307 309 308 302 300 303 310 315 316 315 316 318 318 315 311 305 295 286 284 285 287 289 292 294 294 295 301 303 300 295 290 287 289 296 302 306 307
265 266 268 269 269 269 268 267 269 271 270 265 254 246 247 251 250 249 254 261 260 253 251 247 241 245 247 245 245 247 245 244 245 245 241 239 240 246 253 255 255 257 261 266 271 279 294 303 304 304 303 299 300 305 311 313 312 313 314 316 315 311 306 297 285 281 282 284 286 288 290 291 291 291 296 302 300 293 288 288 290 298 304 305 304
265 266 267 268 268 266 264 262 264 265 257 248 243 239 238 240 240 236 238 246 248 247 250 245 240 245 249 248 247 249 246 242 242 242 239 239 242 244 249 251 253 254 259 266 270 279 293 300 299 299 300 299 301 305 309 310 311 312 313 313 310 306 300 289 279 279 281 283 285 286 286 287 288 287 291 298 299 292 287 288 291 297 303 304 301
263 261 260 265 265 262 261 257 248 241 239 239 238 236 230 229 234 232 233 240 244 246 250 247 243 245 249 248 247 248 245 241 241 241 239 241 245 247 250 253 256 259 265 270 277 288 297 298 296 298 299 299 301 304 307 308 309 311 311 309 307 303 296 286 281 281 281 283 285 286 287 287 286 286 288 289 289 289 289 291 294 297 299 296 295
260 256 254 260 263 261 256 249 240 229 228 232 234 233 227 223 229 231 231 237 242 245 249 249 246 246 247 246 246 245 243 242 243 242 242 244 247 251 255 259 262 266 271 278 288 296 295 292 295 297 297 297 301 306 308 307 308 310 309 306 304 301 293 285 283 283 284 287 289 290 291 289 287 287 287 284 281 283 287 291 294 297 297 293 290
257 253 254 259 262 263 255 244 241 235 230 233 231 227 225 225 228 230 232 235 239 242 248 250 248 245 243 242 243 242 243 244 245 245 247 248 250 254 259 263 266 269 276 286 293 293 288 289 294 298 299 300 304 308 308 308 309 308 305 304 303 299 290 284 283 284 286 289 291 292 291 290 290 288 287 287 284 283 284 287 290 292 293 291 290
259 256 257 258 257 262 257 242 239 239 233 234 232 227 226 227 227 228 232 236 238 239 244 248 248 245 242 241 240 240 243 247 248 249 250 250 252 255 260 265 269 274 283 290 292 290 289 292 296 299 301 302 306 308 308 310 309 306 304 304 302 297 288 283 282 284 286 288 291 293 291 291 292 290 288 288 287 285 285 286 288 288 287 288 291
261 261 259 257 254 260 258 241 234 234 231 231 233 230 228 227 226 227 232 238 241 240 242 246 247 246 244 242 241 241 246 250 252 253 252 251 254 258 264 270 274 280 287 290 290 291 293 294 295 298 301 302 305 307 309 310 309 307 307 305 301 295 288 283 281 282 285 288 291 291 289 289 290 289 289 289 288 288 289 289 288 287 286 288 292
261 262 260 257 255 257 253 240 234 232 231 233 234 232 228 225 224 227 232 238 241 241 242 244 243 242 241 240 240 242 244 247 250 254 254 253 255 261 267 271 276 281 286 289 290 293 295 294 295 299 301 302 304 306 308 310 310 309 309 305 299 292 287 284 283 283 284 287 287 284 282 282 284 287 289 290 290 291 290 288 287 286 287 290 292
248 247 251 250 251 251 243 237 237 234 231 232 234 233 229 224 221 223 228 233 237 240 242 243 241 239 238 239 240 239 240 242 246 251 256 258 260 265 271 273 276 280 285 290 292 293 294 295 298 300 301 301 303 306 309 311 311 311 310 305 298 290 287 285 283 282 283 285 286 285 284 281 280 281 283 286 287 286 285 284 285 287 289 291 293
232 235 243 242 242 243 236 233 236 233 229 229 231 233 230 225 222 222 224 228 233 237 239 240 240 239 239 240 242 242 241 242 245 251 259 263 265 270 275 275 276 281 287 292 292 291 293 296 299 300 300 302 305 308 310 312 313 314 311 304 296 289 285 283 282 282 283 285 286 286 286 284 281 277 276 278 279 279 281 284 287 289 291 292 292
222 232 241 240 234 230 229 230 232 231 228 227 229 233 230 226 224 224 224 225 228 233 235 238 239 238 239 241 243 244 246 248 250 253 258 261 263 270 276 276 279 285 289 290 289 289 292 295 297 298 300 303 307 309 311 313 316 316 311 302 294 287 282 281 282 283 285 287 287 286 285 285 283 278 274 273 274 278 281 285 288 290 292 292 290
213 227 238 238 228 220 224 227 230 231 230 229 232 234 234 230 227 225 226 226 227 231 234 237 238 239 240 242 244 245 249 253 255 255 257 261 265 272 276 277 282 287 288 287 287 288 290 293 295 297 300 304 307 309 312 315 317 316 310 301 293 287 282 282 283 286 288 288 287 286 285 285 284 282 279 278 279 281 284 287 289 290 291 290 289
217 224 231 233 224 219 223 226 231 233 232 235 237 237 238 235 230 228 228 227 227 230 232 236 239 241 242 243 245 248 252 256 258 258 261 265 270 275 277 280 284 287 286 285 285 287 288 291 294 297 300 303 305 308 312 315 317 316 310 302 294 288 284 284 285 287 289 290 289 288 287 287 286 286 285 285 285 286 287 288 290 291 290 289 289
Height
10898 10897 10898 10899 10900 10900 10900 10900 10899 10899 10899 10899 10899 10898 10898 10898 10898 10897 10896 10896 10896 10896 10895 10895 10894 10894 10893 10892 10892 10891 10891 10890 10888 10887 10886 10884 10883 10881 10880 10879 10877 10876 10874 10872 10870 10866 10863 10859 10856 10854 10851 10849 10846 10843 10840 10837 10834 10831 10829 10826 10824 10822 10820 10818 10816 10814 10812 10810 10808 10806 10804 10802 10800 10798 10797 10795 10794 10792 10791 10790 10789 10788 10787 10787 10786
10895 10894 10895 10896 10896 10897 10896 10896 10895 10895 10895 10896 10895 10895 10895 10894 10894 10894 10893 10893 10893 10893 10892 10891 10891 10890 10890 10889 10889 10888 10887 10886 10885 10884 10882 10881 10879 10878 10877 10875 10874 10872 10871 10868 10866 10862 10859 10855 10852 10850 10847 10845 10842 10839 10836 10833 10831 10828 10826 10824 10821 10819 10817 10815 10813 10811 10809 10807 10805 10803 10801 10799 10797 10795 10794 10792 10791 10790 10789 10787 10786 10786 10785 10784 10784
10892 10891 10892 10893 10893 10893 10892 10892 10891 10891 10891 10892 10892 10891 10891 10890 10891 10890 10890 10889 10889 10889 10889 10888 10887 10887 10886 10885 10885 10885 10884 10883 10881 10880 10879 10877 10876 10874 10873 10872 10871 10869 10867 10865 10862 10858 10855 10851 10848 10846 10843 10841 10838 10836 10833 10830 10828 10826 10823 10821 10819 10817 10815 10813 10811 10809 10807 10804 10802 10800 10798 10796 10794 10792 10791 10789 10788 10787 10786 10785 10784 10783 10783 10782 10781
10890 10888 10888 10889 10889 10889 10889 10888 10887 10887 10887 10888 10888 10888 10888 10887 10887 10886 10886 10885 10885 10885 10885 10885 10883 10883 10882 10882 10882 10881 10880 10879 10878 10877 10875 10873 10872 10871 10870 10869 10867 10865 10863 10861 10858 10854 10851 10848 10845 10842 10839 10837 10834 10832 10830 10828 10825 10823 10821 10819 10817 10815 10813 10811 10809 10807 10804 10802 10799 10797 10795 10793 10792 10790 10788 10787 10786 10785 10784 10783 10782 10781 10780 10779 10778
10887 10884 10884 10885 10885 10885 10884 10884 10883 10883 10883 10884 10884 10884 10884 10884 10884 10883 10882 10881 10881 10881 10881 10881 10880 10879 10878 10878 10878 10878 10877 10876 10874 10873 10871 10869 10869 10868 10867 10866 10864 10862 10860 10857 10854 10850 10847 10844 10841 10838 10836 10833 10831 10829 10827 10825 10823 10821 10818 10816 10815 10813 10811 10809 10807 10805 10802 10800 10797 10795 10793 10791 10789 10787 10786 10784 10783 10782 10781 10780 10779 10778 10777 10776 10775
10882 10880 10881 10881 10881 10881 10880 10880 10879 10879 10880 10880 10880 10881 10881 10881 10881 10880 10879 10878 10878 10878 10877 10877 10876 10875 10874 10874 10874 10874 10873 10872 10870 10869 10867 10866 10865 10864 10864 10862 10860 10858 10856 10853 10850 10846 10843 10840 10837 10835 10832 10829 10827 10825 10824 10822 10820 10818 10816 10814 10813 10811 10809 10807 10805 10803 10800 10798 10795 10793 10791 10789 10787 10785 10783 10782 10781 10780 10779 10778 10777 10776 10775 10774 10773
10877 10877 10877 10877 10877 10877 10876 10876 10875 10875 10876 10876 10877 10877 10878 10878 10878 10877 10876 10875 10874 10874 10874 10873 10873 10871 10870 10870 10870 10870 10869 10868 10866 10865 10863 10862 10861 10861 10860 10859 10856 10854 10851 10849 10845 10842 10839 10836 10834 10831 10828 10826 10824 10822 10821 10819 10817 10816 10814 10812 10811 10809 10807 10805 10803 10801 10798 10796 10793 10791 10789 10787 10785 10783 10781 10779 10778 10777 10776 10775 10774 10773 10773 10772 10771
10873 10872 10872 10872 10872 10873 10873 10872 10872 10872 10872 10873 10873 10874 10874 10875 10875 10874 10873 10872 10871 10871 10871 10870 10869 10868 10867 10866 10865 10865 10865 10863 10862 10861 10859 10858 10857 10857 10856 10854 10852 10850 10847 10844 10841 10838 10835 10832 10830 10828 10825 10823 10821 10820 10818 10816 10815 10813 10812 10810 10809 10807 10805 10803 10801 10799 10796 10794 10792 10789 10787 10785 10783 10781 10779 10778 10776 10775 10774 10773 10772 10772 10771 10770 10770
10868 10868 10868 10868 10868 10868 10868 10868 10868 10869 10869 10870 10870 10870 10871 10871 10872 10872 10871 10870 10868 10867 10867 10866 10866 10864 10863 10862 10861 10861 10860 10859 10858 10856 10855 10854 10853 10852 10851 10850 10848 10845 10843 10840 10837 10834 10831 10828 10826 10824 10822 10821 10819 10818 10816 10814 10812 10811 10810 10808 10806 10805 10803 10801 10799 10797 10794 10792 10790 10787 10785 10783 10781 10779 10778 10776 10775 10774 10772 10772 10771 10770 10770 10769 10768
10863 10863 10863 10864 10863 10863 10864 10864 10865 10865 10866 10866 10866 10867 10868 10868 10868 10868 10868 10867 10865 10864 10864 10862 10861 10860 10858 10857 10857 10856 10856 10854 10853 10852 10850 10849 10849 10848 10847 10845 10843 10841 10838 10836 10833 10830 10827 10825 10822 10820 10819 10819 10817 10815 10813 10812 10810 10809 10807 10806 10804 10803 10801 10799 10796 10794 10792 10790 10788 10785 10783 10781 10779 10778 10776 10774 10773 10772 10771 10770 10770 10769 10768 10767 10765
10856 10857 10858 10858 10858 10858 10859 10860 10862 10862 10862 10863 10863 10864 10865 10865 10865 10865 10864 10864 10863 10861 10860 10858 10856 10855 10854 10853 10852 10851 10851 10850 10849 10847 10846 10845 10844 10843 10842 10841 10839 10836 10834 10831 10829 10826 10823 10821 10819 10817 10817 10816 10815 10813 10811 10810 10808 10807 10806 10804 10803 10801 10799 10797 10794 10792 10790 10787 10785 10783 10781 10779 10778 10776 10774 10773 10772 10771 10770 10769 10768 10767 10766 10765 10763
10849 10851 10851 10851 10852 10853 10854 10856 10858 10859 10859 10860 10860 10861 10861 10861 10861 10860 10860 10859 10859 10858 10856 10854 10851 10850 10849 10848 10847 10846 10846 10845 10844 10843 10841 10841 10839 10838 10838 10836 10834 10832 10830 10827 10825 10822 10820 10818 10816 10815 10815 10814 10813 10811 10809 10808 10806 10805 10804 10803 10801 10799 10797 10795 10792 10790 10788 10785 10783 10781 10779 10778 10776 10774 10773 10771 10770 10769 10768 10767 10766 10765 10764 10762 10761
10843 10844 10845 10846 10848 10848 10850 10852 10854 10855 10856 10856 10856 10857 10857 10857 10857 10856 10855 10855 10854 10853 10851 10849 10847 10846 10844 10844 10843 10842 10841 10841 10840 10838 10837 10836 10835 10834 10833 10831 10830 10828 10826 10823 10821 10819 10817 10815 10814 10814 10813 10812 10810 10809 10807 10806 10804 10803 10802 10801 10799 10797 10795 10793 10790 10788 10786 10783 10781 10780 10778 10776 10774 10773 10771 10770 10768 10767 10766 10765 10764 10763 10761 10760 10758
10840 10839 10841 10843 10844 10845 10846 10848 10849 10851 10851 10852 10852 10852 10853 10853 10853 10852 10851 10851 10850 10848 10847 10845 10844 10842 10840 10840 10839 10838 10837 10836 10835 10833 10832 10831 10831 10830 10828 10827 10826 10824 10822 10820 10818 10815 10814 10813 10812 10812 10811 10810 10808 10807 10805 10804 10802 10801 10800 10799 10797 10795 10793 10791 10788 10786 10784 10781 10780 10778 10776 10774 10772 10771 10769 10768 10767 10765 10764 10763 10762 10761 10759 10758 10756
10837 10837 10839 10839 10840 10841 10842 10844 10845 10846 10847 10848 10849 10849 10850 10849 10849 10848 10847 10846 10845 10844 10843 10841 10840 10838 10836 10835 10834 10833 10833 10831 10830 10829 10828 10827 10826 10825 10824 10823 10822 10820 10818 10817 10815 10813 10812 10811 10810 10810 10809 10808 10806 10805 10803 10802 10800 10799 10798 10797 10796 10794 10792 10789 10786 10784 10782 10780 10778 10776 10774 10772 10771 10769 10767 10766 10765 10764 10762 10761 10760 10759 10757 10755 10754
10836 10836 10836 10836 10836 10837 10839 10840 10841 10842 10844 10845 10846 10846 10846 10846 10844 10842 10842 10842 10841 10840 10839 10837 10836 10834 10832 10831 10829 10828 10827 10826 10825 10825 10825 10823 10822 10822 10821 10820 10818 10817 10815 10814 10812 10811 10810 10809 10809 10808 10807 10806 10804 10803 10802 10800 10798 10797 10795 10794 10793 10792 10790 10787 10785 10782 10780 10778 10776 10774 10772 10770 10769 10767 10765 10764 10763 10762 10761 10759 10758 10756 10755 10753 10751
10834 10833 10832 10832 10832 10834 10836 10838 10838 10839 10841 10842 10842 10843 10842 10841 10840 10838 10837 10838 10837 10837 10836 10834 10833 10831 10829 10827 10826 10824 10823 10823 10822 10822 10821 10820 10819 10818 10817 10816 10815 10814 10813 10811 10810 10809 10808 10807 10807 10806 10805 10804 10802 10801 10800 10798 10797 10795 10793 10791 10791 10790 10788 10785 10783 10780 10778 10776 10774 10772 10770 10768 10767 10765 10763 10762 10761 10760 10759 10757 10756 10754 10753 10751 10749
10829 10828 10827 10827 10830 10832 10832 10834 10835 10836 10837 10838 10839 10838 10838 10838 10836 10834 10834 10834 10834 10833 10832 10832 10830 10829 10827 10825 10823 10822 10821 10820 10819 10819 10818 10817 10816 10815 10814 10813 10812 10811 10810 10809 10808 10807 10806 10805 10804 10803 10802 10801 10800 10799 10798 10797 10795 10793 10790 10789 10788 10788 10786 10783 10780 10778 10776 10774 10772 10770 10768 10766 10765 10763 10761 10760 10759 10758 10757 10755 10754 10752 10751 10749 10747
10823 10822 10822 10824 10827 10828 10828 10830 10831 10833 10834 10834 10834 10834 10834 10834 10833 10832 10831 10830 10830 10829 10829 10829 10828 10827 10825 10824 10822 10820 10819 10818 10817 10816 10816 10815 10814 10812 10811 10811 10810 10808 10808 10807 10806 10805 10804 10803 10802 10801 10800 10799 10798 10797 10796 10795 10793 10791 10789 10787 10786 10786 10784 10780 10778 10775 10773 10771 10769 10768 10766 10764 10763 10761 10760 10758 10757 10756 10755 10753 10752 10750 10749 10747 10745
10818 10817 10818 10821 10823 10823 10823 10825 10828 10831 10831 10829 10830 10830 10831 10831 10830 10829 10828 10827 10826 10826 10826 10826 10826 10825 10823 10822 10820 10819 10817 10816 10815 10814 10813 10812 10811 10810 10809 10808 10807 10806 10805 10804 10803 10802 10801 10800 10799 10798 10797 10797 10796 10795 10794 10793 10791 10789 10786 10784 10784 10784 10782 10778 10775 10773 10770 10768 10767 10766 10764 10763 10761 10759 10758 10757 10755 10754 10753 10751 10750 10749 10747 10745 10744
10814 10813 10815 10818 10819 10819 10819 10822 10825 10826 10825 10825 10825 10826 10827 10827 10826 10825 10825 10824 10823 10822 10823 10823 10823 10822 10821 10819 10818 10817 10815 10814 10812 10811 10810 10810 10809 10808 10807 10806 10805 10804 10803 10802 10801 10800 10799 10798 10797 10796 10795 10794 10794 10793 10792 10791 10789 10787 10784 10782 10782 10783 10781 10777 10773 10771 10768 10766 10765 10763 10762 10761 10759 10758 10756 10755 10754 10752 10751 10750 10749 10747 10746 10744 10742
10810 10810 10813 10815 10815 10816 10816 10818 10821 10821 10821 10821 10821 10823 10823 10823 10822 10822 10821 10821 10820 10819 10819 10820 10820 10819 10818 10817 10815 10814 10813 10811 10809 10808 10808 10807 10806 10805 10804 10803 10802 10802 10801 10799 10798 10797 10797 10796 10795 10794 10793 10792 10792 10791 10789 10788 10786 10784 10782 10780 10779 10780 10780 10776 10771 10769 10767 10764 10763 10761 10760 10759 10757 10756 10755 10753 10752 10751 10750 10749 10747 10746 10744 10743 10741
10807 10808 10810 10811 10812 10813 10814 10815 10817 10817 10816 10816 10817 10818 10819 10818 10818 10817 10817 10817 10817 10816 10816 10816 10816 10815 10814 10813 10813 10811 10810 10808 10806 10805 10805 10804 10804 10803 10801 10801 10800 10799 10798 10797 10796 10795 10794 10793 10792 10791 10790 10790 10789 10788 10787 10785 10784 10782 10780 10778 10776 10776 10777 10774 10768 10767 10765 10763 10761 10760 10758 10756 10755 10754 10753 10752 10751 10750 10749 10747 10746 10745 10743 10742 10740
10806 10806 10807 10807 10808 10809 10810 10812 10813 10813 10812 10812 10813 10814 10814 10814 10813 10813 10813 10813 10813 10811 10811 10812 10812 10811 10811 10810 10809 10808 10807 10805 10803 10802 10801 10801 10800 10800 10799 10798 10797 10797 10796 10795 10794 10793 10791 10790 10790 10789 10788 10788 10787 10786 10784 10783 10781 10779 10778 10777 10774 10772 10774 10772 10767 10765 10763 10761 10759 10758 10756 10755 10753 10752 10751 10750 10749 10748 10747 10746 10745 10743 10742 10741 10739
10804 10804 10803 10803 10804 10805 10806 10808 10809 10809 10810 10809 10809 10809 10809 10810 10809 10809 10809 10809 10808 10807 10807 10807 10807 10807 10807 10806 10805 10805 10803 10801 10800 10799 10798 10798 10797 10797 10796 10796 10795 10794 10793 10792 10791 10790 10789 10788 10787 10787 10786 10786 10785 10783 10782 10780 10777 10776 10776 10775 10772 10768 10769 10769 10765 10763 10761 10759 10758 10756 10755 10753 10752 10751 10750 10748 10747 10747 10746 10745 10743 10742 10741 10740 10738
10802 10801 10801 10801 10801 10801 10803 10804 10805 10805 10806 10806 10805 10805 10805 10805 10805 10805 10805 10805 10803 10802 10802 10802 10802 10803 10802 10801 10801 10801 10799 10798 10796 10796 10795 10795 10795 10794 10794 10793 10792 10791 10790 10789 10788 10787 10786 10786 10785 10785 10784 10784 10783 10781 10780 10777 10774 10773 10774 10772 10769 10766 10765 10764 10762 10761 10758 10757 10755 10754 10753 10752 10750 10749 10748 10747 10746 10745 10744 10743 10742 10741 10740 10739 10737
10798 10798 10798 10798 10797 10797 10799 10800 10801 10802 10802 10802 10800 10800 10800 10801 10801 10800 10800 10799 10797 10796 10797 10797 10797 10798 10798 10797 10797 10796 10795 10794 10793 10792 10792 10792 10792 10791 10791 10790 10789 10788 10787 10786 10785 10784 10784 10783 10783 10782 10782 10781 10780 10779 10777 10773 10771 10772 10771 10769 10766 10764 10762 10760 10759 10758 10756 10755 10753 10752 10752 10751 10749 10747 10746 10745 10745 10744 10742 10742 10741 10740 10739 10737 10736
10790 10792 10794 10794 10793 10793 10794 10795 10797 10797 10798 10798 10796 10794 10794 10795 10795 10794 10793 10792 10791 10791 10791 10791 10791 10793 10793 10793 10793 10792 10791 10790 10790 10789 10789 10789 10789 10788 10788 10787 10786 10785 10784 10783 10782 10782 10781 10781 10780 10780 10779 10779 10778 10776 10773 10769 10769 10770 10769 10767 10765 10762 10759 10757 10755 10754 10754 10752 10751 10750 10750 10749 10747 10745 10744 10743 10743 10742 10741 10740 10739 10738 10737 10736 10735
10783 10786 10787 10788 10788 10788 10790 10791 10792 10793 10793 10793 10791 10789 10789 10789 10789 10787 10787 10785 10784 10784 10784 10785 10785 10787 10789 10789 10789 10788 10787 10787 10786 10786 10786 10786 10785 10784 10784 10784 10783 10782 10781 10780 10780 10779 10778 10778 10778 10777 10777 10776 10775 10773 10769 10767 10767 10767 10766 10764 10762 10759 10756 10754 10752 10751 10751 10750 10749 10748 10747 10746 10745 10744 10743 10742 10741 10740 10739 10738 10738 10737 10736 10735 10734
10780 10782 10782 10782 10782 10783 10785 10786 10787 10788 10788 10787 10785 10783 10782 10782 10781 10780 10779 10778 10778 10777 10778 10779 10780 10782 10784 10784 10785 10784 10783 10783 10783 10782 10783 10782 10780 10779 10779 10780 10780 10780 10779 10778 10777 10776 10776 10776 10775 10775 10774 10774 10772 10769 10765 10765 10765 10764 10763 10760 10758 10755 10752 10751 10750 10749 10748 10747 10747 10746 10745 10744 10743 10742 10741 10741 10740 10739 10738 10737 10736 10735 10735 10734 10733
10778 10778 10777 10776 10777 10779 10781 10783 10784 10784 10783 10781 10779 10778 10777 10776 10773 10771 10772 10772 10772 10771 10772 10774 10775 10777 10779 10780 10780 10779 10779 10778 10778 10779 10778 10777 10776 10775 10776 10776 10777 10777 10776 10775 10774 10774 10773 10773 10773 10773 10772 10771 10769 10764 10762 10763 10762 10761 10759 10756 10754 10752 10749 10748 10748 10747 10746 10745 10745 10743 10743 10742 10742 10741 10740 10739 10738 10737 10736 10735 10734 10734 10733 10732 10732
10775 10773 10773 10773 10773 10775 10778 10780 10780 10780 10779 10777 10774 10773 10771 10768 10765 10764 10766 10766 10766 10766 10767 10769 10771 10773 10775 10776 10776 10775 10775 10774 10774 10774 10773 10772 10772 10772 10773 10772 10773 10774 10773 10772 10772 10771 10771 10771 10771 10771 10770 10769 10763 10758 10758 10759 10758 10757 10755 10753 10751 10749 10747 10745 10745 10745 10744 10743 10742 10741 10741 10740 10740 10739 10738 10737 10736 10735 10734 10734 10733 10732 10731 10731 10730
10771 10771 10772 10769 10769 10773 10775 10777 10777 10776 10775 10773 10770 10768 10763 10758 10758 10760 10761 10760 10760 10761 10761 10764 10766 10769 10771 10772 10771 10771 10770 10769 10770 10770 10769 10769 10769 10769 10770 10769 10770 10771 10771 10770 10769 10769 10769 10769 10770 10770 10770 10766 10757 10753 10755 10755 10755 10754 10753 10751 10750 10747 10745 10743 10742 10742 10742 10741 10740 10739 10739 10739 10738 10737 10736 10735 10734 10733 10733 10732 10731 10730 10730 10729 10728
10766 10769 10768 10765 10767 10770 10772 10773 10773 10772 10773 10771 10766 10760 10755 10754 10756 10758 10758 10756 10754 10755 10756 10759 10762 10766 10768 10769 10768 10767 10766 10765 10766 10766 10766 10766 10766 10766 10766 10765 10766 10767 10767 10766 10765 10765 10766 10766 10767 10768 10769 10765 10755 10751 10754 10754 10754 10753 10751 10750 10748 10745 10743 10741 10739 10739 10738 10738 10738 10737 10737 10737 10736 10735 10734 10733 10733 10732 10731 10730 10729 10729 10728 10727 10726
10761 10763 10762 10762 10765 10767 10769 10770 10770 10770 10771 10766 10759 10755 10753 10754 10756 10757 10756 10754 10751 10752 10753 10755 10759 10763 10764 10765 10764 10763 10762 10761 10762 10763 10764 10764 10764 10764 10763 10763 10763 10763 10763 10762 10761 10761 10761 10762 10763 10765 10766 10763 10754 10752 10753 10753 10752 10750 10749 10748 10747 10744 10740 10738 10737 10736 10735 10736 10736 10736 10735 10735 10734 10733 10732 10731 10730 10730 10729 10729 10728 10727 10726 10725 10724
10755 10757 10757 10760 10763 10764 10766 10767 10766 10770 10770 10760 10754 10755 10756 10755 10755 10754 10753 10751 10749 10749 10750 10752 10757 10759 10760 10760 10760 10759 10759 10758 10759 10760 10762 10762 10762 10762 10761 10761 10760 10760 10760 10760 10760 10759 10758 10759 10760 10762 10763 10759 10753 10751 10751 10750 10748 10746 10745 10745 10743 10741 10738 10736 10735 10733 10732 10733 10734 10734 10733 10733 10732 10731 10730 10730 10729 10728 10727 10727 10726 10725 10724 10723 10722
10748 10750 10753 10756 10757 10760 10763 10763 10764 10768 10767 10758 10753 10755 10754 10754 10755 10753 10751 10749 10747 10746 10747 10750 10754 10756 10756 10757 10757 10757 10756 10756 10757 10758 10759 10760 10759 10759 10758 10758 10758 10758 10758 10759 10759 10757 10756 10757 10757 10759 10759 10755 10750 10748 10748 10747 10744 10742 10742 10741 10740 10738 10736 10734 10733 10731 10729 10730 10731 10732 10731 10731 10730 10729 10728 10728 10727 10726 10726 10725 10724 10723 10723 10722 10721
10742 10744 10747 10751 10751 10754 10758 10760 10761 10763 10762 10758 10753 10750 10750 10752 10753 10751 10748 10745 10743 10742 10744 10747 10751 10753 10753 10754 10755 10756 10755 10754 10755 10756 10757 10756 10756 10757 10756 10756 10755 10756 10756 10758 10758 10755 10754 10754 10753 10755 10756 10751 10746 10745 10745 10744 10741 10739 10739 10739 10737 10736 10734 10733 10732 10730 10728 10729 10729 10729 10729 10728 10727 10727 10726 10726 10725 10725 10724 10723 10722 10721 10721 10720 10719
10735 10737 10741 10744 10745 10748 10752 10756 10758 10758 10758 10754 10748 10746 10749 10748 10746 10744 10742 10740 10738 10738 10741 10745 10748 10750 10750 10752 10753 10754 10753 10752 10752 10753 10754 10753 10753 10754 10754 10754 10753 10753 10754 10756 10757 10755 10754 10753 10750 10751 10751 10747 10744 10743 10742 10740 10739 10737 10736 10736 10735 10733 10732 10731 10730 10728 10727 10727 10727 10727 10726 10725 10725 10724 10724 10724 10724 10723 10722 10721 10720 10720 10719 10719 10718
10727 10730 10734 10737 10739 10742 10746 10751 10753 10753 10750 10745 10741 10742 10744 10740 10737 10737 10737 10735 10734 10735 10739 10742 10745 10747 10748 10749 10751 10752 10752 10750 10750 10750 10751 10750 10750 10750 10751 10750 10750 10751 10752 10753 10754 10754 10753 10751 10750 10748 10746 10744 10742 10741 10739 10737 10736 10735 10734 10733 10733 10731 10729 10728 10727 10726 10725 10725 10725 10724 10723 10723 10723 10722 10722 10722 10722 10722 10721 10719 10719 10718 10718 10717 10717
10719 10723 10727 10730 10732 10735 10739 10741 10744 10742 10737 10733 10731 10730 10731 10731 10730 10731 10731 10731 10731 10734 10737 10739 10742 10744 10745 10747 10748 10749 10748 10748 10747 10747 10747 10747 10747 10747 10747 10747 10748 10748 10749 10750 10751 10752 10750 10748 10748 10746 10744 10741 10739 10739 10738 10735 10733 10732 10731 10730 10729 10727 10725 10724 10723 10723 10722 10722 10722 10721 10720 10721 10720 10720 10720 10720 10720 10720 10719 10718 10717 10717 10716 10716 10715
10711 10716 10721 10724 10726 10727 10728 10728 10729 10727 10722 10721 10720 10718 10720 10724 10725 10725 10726 10728 10730 10733 10734 10736 10738 10741 10743 10744 10745 10745 10745 10745 10745 10745 10744 10744 10744 10743 10743 10744 10744 10745 10746 10747 10747 10748 10746 10744 10744 10743 10741 10738 10736 10735 10735 10734 10732 10729 10727 10725 10723 10722 10721 10720 10720 10719 10719 10719 10719 10718 10718 10718 10718 10717 10717 10718 10718 10718 10717 10716 10716 10715 10715 10714 10713
10704 10710 10714 10718 10720 10717 10716 10718 10719 10716 10715 10715 10713 10713 10715 10719 10720 10721 10723 10725 10728 10730 10731 10733 10736 10738 10740 10741 10742 10742 10742 10743 10743 10742 10741 10741 10741 10740 10739 10739 10740 10741 10743 10743 10743 10743 10742 10741 10740 10739 10737 10735 10732 10731 10731 10730 10729 10726 10723 10721 10719 10718 10717 10717 10717 10717 10716 10716 10717 10716 10715 10715 10715 10715 10715 10716 10716 10715 10714 10714 10713 10713 10712 10711 10710
10699 10704 10709 10711 10710 10705 10706 10712 10714 10711 10710 10709 10708 10710 10713 10715 10717 10718 10720 10722 10724 10726 10728 10730 10733 10735 10736 10738 10740 10739 10740 10740 10740 10739 10739 10738 10738 10737 10737 10735 10735 10738 10739 10739 10739 10739 10738 10737 10735 10733 10732 10731 10729 10728 10727 10726 10725 10722 10720 10718 10716 10715 10714 10714 10714 10714 10714 10714 10714 10714 10712 10712 10712 10713 10713 10713 10713 10712 10712 10711 10710 10710 10709 10708 10707
10694 10699 10702 10701 10697 10697 10701 10706 10708 10706 10704 10703 10704 10707 10710 10713 10714 10715 10717 10719 10720 10722 10725 10727 10730 10731 10731 10734 10736 10736 10737 10737 10737 10737 10736 10735 10734 10735 10735 10733 10731 10732 10734 10735 10734 10734 10733 10732 10731 10729 10727 10726 10725 10724 10723 10722 10721 10719 10717 10715 10713 10711 10711 10711 10711 10711 10711 10711 10712 10711 10710 10710 10710 10710 10710 10710 10710 10709 10708 10708 10707 10707 10706 10705 10704
10692 10695 10690 10685 10685 10690 10695 10698 10700 10701 10700 10699 10700 10702 10705 10708 10709 10711 10714 10715 10716 10718 10721 10724 10727 10728 10728 10729 10731 10732 10734 10734 10734 10734 10733 10732 10732 10732 10732 10731 10729 10728 10729 10731 10730 10728 10727 10726 10726 10725 10723 10722 10722 10721 10720 10719 10717 10715 10713 10712 10710 10709 10708 10709 10709 10709 10708 10708 10709 10709 10708 10708 10707 10707 10707 10706 10706 10705 10705 10704 10704 10703 10703 10702 10700
10688 10685 10674 10669 10674 10681 10687 10691 10693 10695 10696 10696 10696 10697 10699 10701 10703 10706 10710 10711 10712 10714 10716 10720 10723 10725 10725 10725 10726 10728 10730 10731 10730 10730 10729 10729 10729 10729 10729 10728 10726 10724 10725 10726 10725 10723 10722 10721 10721 10720 10719 10719 10719 10718 10716 10715 10714 10711 10710 10709 10708 10706 10706 10706 10707 10706 10706 10706 10706 10706 10705 10705 10704 10704 10704 10703 10703 10702 10701 10701 10700 10700 10699 10698 10697
10678 10673 10662 10659 10667 10674 10681 10684 10685 10687 10690 10691 10691 10691 10693 10696 10699 10702 10704 10706 10707 10709 10712 10715 10718 10720 10721 10721 10721 10723 10726 10728 10727 10726 10725 10725 10726 10726 10726 10725 10723 10722 10720 10720 10719 10719 10718 10717 10717 10717 10716 10715 10715 10715 10713 10712 10710 10708 10706 10706 10705 10704 10703 10703 10703 10703 10703 10703 10703 10703 10702 10702 10701 10700 10700 10700 10700 10699 10698 10697 10697 10696 10696 10694 10693
10669 10665 10656 10655 10662 10668 10674 10677 10678 10680 10683 10684 10685 10685 10687 10691 10694 10697 10700 10701 10702 10704 10707 10710 10713 10715 10717 10717 10718 10719 10721 10723 10723 10722 10722 10722 10723 10723 10722 10721 10719 10717 10716 10715 10716 10715 10714 10713 10713 10713 10713 10712 10712 10711 10710 10709 10707 10705 10703 10702 10702 10702 10701 10701 10700 10700 10699 10699 10699 10699 10699 10699 10698 10697 10697 10696 10696 10695 10695 10694 10694 10693 10692 10691 10689
10658 10655 10651 10651 10659 10666 10670 10674 10674 10675 10677 10678 10678 10680 10683 10686 10688 10692 10695 10697 10698 10700 10702 10705 10707 10710 10712 10713 10714 10715 10716 10718 10718 10718 10718 10719 10719 10719 10718 10717 10715 10713 10712 10712 10712 10711 10711 10710 10710 10710 10709 10708 10708 10707 10707 10705 10703 10702 10700 10699 10699 10699 10699 10698 10698 10697 10696 10696 10695 10695 10695 10695 10695 10694 10693 10692 10691 10691 10691 10691 10691 10690 10689 10687 10686
10650 10648 10646 10649 10657 10664 10668 10670 10671 10671 10673 10674 10675 10677 10680 10682 10684 10687 10690 10693 10694 10696 10698 10700 10702 10705 10708 10709 10710 10711 10712 10712 10713 10714 10714 10715 10715 10714 10713 10712 10710 10709 10709 10709 10708 10708 10708 10707 10706 10706 10705 10705 10704 10704 10703 10702 10700 10698 10697 10696 10696 10696 10696 10695 10695 10694 10693 10692 10691 10691 10691 10691 10691 10690 10689 10688 10687 10686 10686 10686 10687 10686 10685 10684 10683